This is the latest recevied weather packets stored in our database for station/object N4TLC. If no packets are shown the sender has not sent any weather packets the latest 10 day(s).
| Time | Temp. | Humidity | Pressure | Rain* | Wind** | Luminosity | Snow |
|---|---|---|---|---|---|---|---|
| 1777782021 | 5.56° C | 83% | 1017.4 hPa | 0 mm | - | 0 W/m² | - |
| 1777781719 | 5.56° C | 83% | 1017.5 hPa | 0 mm | - | 0 W/m² | - |
| 1777781416 | 5.56° C | 83% | 1017.4 hPa | 0 mm | - | 0 W/m² | - |
| 1777781114 | 5.56° C | 81% | 1017.3 hPa | 0 mm | - | 0 W/m² | - |
| 1777780811 | 6.11° C | 81% | 1017.4 hPa | 0 mm | - | 0 W/m² | - |
| 1777780507 | 6.11° C | 80% | 1017.4 hPa | 0 mm | - | 0 W/m² | - |
| 1777780205 | 6.11° C | 80% | 1017.3 hPa | 0 mm | - | 0 W/m² | - |
| 1777779902 | 6.11° C | 79% | 1017.4 hPa | 0 mm | - | 0 W/m² | - |
| 1777779599 | 6.11° C | 80% | 1017.2 hPa | 0 mm | - | 0 W/m² | - |
| 1777779296 | 6.11° C | 79% | 1017.1 hPa | 0 mm | - | 0 W/m² | - |
| 1777778994 | 6.67° C | 77% | 1017.2 hPa | 0 mm | - | 0 W/m² | - |
| 1777778692 | 6.67° C | 77% | 1017.1 hPa | 0 mm | - | 0 W/m² | - |
| 1777778390 | 6.67° C | 76% | 1016.9 hPa | 0 mm | - | 0 W/m² | - |
| 1777778088 | 7.22° C | 75% | 1016.8 hPa | 0 mm | - | 0 W/m² | - |
| 1777777784 | 7.22° C | 74% | 1017 hPa | 0 mm | - | 0 W/m² | - |
| 1777777480 | 7.22° C | 73% | 1016.9 hPa | 0 mm | - | 0 W/m² | - |
| 1777777177 | 7.78° C | 73% | 1016.9 hPa | 0 mm | - | 0 W/m² | - |
| 1777776874 | 7.78° C | 72% | 1017.1 hPa | 0 mm | - | 0 W/m² | - |
| 1777776572 | 7.78° C | 71% | 1017.1 hPa | 0 mm | - | 0 W/m² | - |
| 1777776268 | 8.33° C | 70% | 1016.8 hPa | 0 mm | - | 0 W/m² | - |
| 1777775965 | 8.89° C | 68% | 1016.8 hPa | 0 mm | - | 0 W/m² | - |
| 1777775662 | 8.89° C | 67% | 1016.8 hPa | 0 mm | - | 0 W/m² | - |
| 1777775359 | 9.44° C | 63% | 1017 hPa | 0 mm | - | 0 W/m² | - |
| 1777775054 | 9.44° C | 64% | 1016.9 hPa | 0 mm | - | 0 W/m² | - |
| 1777774750 | 9.44° C | 64% | 1016.8 hPa | 0 mm | - | 0 W/m² | - |
* Rain latest hour (hover to see other rain measurements)
** Current wind speed in m/s (hover to see current wind gust speed)